Regional Weather Roundup
Issued by NWS

Home | Current Version | Previous Version | Graphics & Text | Print | Product List | Glossary On
Versions: 1 2 3 4 5 6 7 8 9 10 11 12 13 14 15 16 17 18 19 20 21 22 23 24 25 26 27 28 29 30 31 32 33 34 35 36 37 38 39 40 41 42 43 44 45 46 47 48 49 50
000
ASUS43 KMKX 021200
RWRWI

WISCONSIN REGIONAL WEATHER ROUNDUP
NATIONAL WEATHER SERVICE MILWAUKEE/SULLIVAN WI
700 AM CDT THU JUL 02 2015

NOTE: "FAIR" INDICATES FEW OR NO CLOUDS BELOW 12,000 FEET WITH NO
SIGNIFICANT WEATHER AND/OR OBSTRUCTIONS TO VISIBILITY.

WIZ001-002-006>008-014>016-023>028-021300-
NORTHWEST WISCONSIN

CITY           SKY/WX    TMP DP  RH WIND       PRES   REMARKS
SUPERIOR ARPT  SUNNY     52  52  98 CALM      30.04R
ASHLAND        MOSUNNY   53  52  96 SW3       30.06R
6HR MIN TEMP:  46; 6HR MAX TEMP:  53;

HAYWARD        SUNNY     53  50  89 CALM      30.08R
6HR MIN TEMP:  48; 6HR MAX TEMP:  54;

SIREN          NOT AVBL
CUMBERLAND     NOT AVBL
RICE LAKE      NOT AVBL
CHETEK         NOT AVBL
LADYSMITH      NOT AVBL
EAU CLAIRE     NOT AVBL
MENOMONIE      NOT AVBL
NEW RICHMOND   NOT AVBL
OSCEOLA        NOT AVBL
$$

WIZ003>005-009-010-017-018-021300-
NORTH CENTRAL WISCONSIN

CITY           SKY/WX    TMP DP  RH WIND       PRES   REMARKS
MANITOWISH WTR NOT AVBL
ARBOR VITAE    SUNNY     52  50  92 CALM      30.08R
WOODRUFF       SUNNY     52  50  92 CALM      30.08R
RHINELANDER    SUNNY     51  47  86 CALM      30.10R
6HR MIN TEMP:  42; 6HR MAX TEMP:  52;

EAGLE RIVER    NOT AVBL
LAND O LAKES   SUNNY     47  47 100 CALM      30.09R
PHILLIPS       NOT AVBL
TOMAHAWK       NOT AVBL
MEDFORD        NOT AVBL
MERRILL        NOT AVBL
$$

WIZ029-030-035-036-043>047-021300-
CENTRAL WISCONSIN

CITY           SKY/WX    TMP DP  RH WIND       PRES   REMARKS
WAUSAU         SUNNY     52  48  86 CALM      30.08R
6HR MIN TEMP:  49; 6HR MAX TEMP:  54;

MOSINEE        NOT AVBL
MARSHFIELD     SUNNY     54  50  86 SE3       30.08R FOG
6HR MIN TEMP:  52; 6HR MAX TEMP:  57;

STEVENS POINT  NOT AVBL
WAUPACA        NOT AVBL
WAUTOMA        SUNNY     50  50 100 CALM      30.08R
WISC RAPIDS    SUNNY     54  51  90 CALM      30.09R
6HR MIN TEMP:  49; 6HR MAX TEMP:  54;

CAMP DOUGLAS   FOG       45  45 100 W2        30.06R VSB 3/4
$$

WIZ011>013-019>022-031-037>040-048>050-021300-
NORTHEAST WISCONSIN

CITY           SKY/WX    TMP DP  RH WIND       PRES   REMARKS
ANTIGO         SUNNY     47  47  99 CALM      30.08S
SHAWANO        NOT AVBL
OCONTO         NOT AVBL
STURGEON BAY   SUNNY     52  46  82 CALM      30.08F
6HR MIN TEMP:  46; 6HR MAX TEMP:  52;

GREEN BAY      SUNNY     53  50  89 N3        30.06F
6HR MIN TEMP:  47; 6HR MAX TEMP:  53;

MANITOWOC      NOT AVBL
APPLETON       SUNNY     54  45  71 N5        30.07S
CLINTONVILLE   NOT AVBL
OSHKOSH          N/A     57  46  66 NE7       30.05S
6HR MIN TEMP:  49; 6HR MAX TEMP:  57;

$$

WIZ032>034-041-042-053>061-021300-
SOUTHWEST WISCONSIN

CITY           SKY/WX    TMP DP  RH WIND       PRES   REMARKS
LA CROSSE      MOSUNNY   53  52  96 SE5       30.06R
6HR MIN TEMP:  51; 6HR MAX TEMP:  56;

SPARTA         NOT AVBL
VIROQUA        NOT AVBL
BOSCOBEL       FOG       52  51  97 CALM      30.05R VSB 1/4
6HR MIN TEMP:  49; 6HR MAX TEMP:  53;

PRAIRIE DU CHI NOT AVBL
PLATTEVILLE    NOT AVBL
$$

WIZ056-057-062-063-064-067-068-021300-
SOUTH CENTRAL WISCONSIN

CITY           SKY/WX    TMP DP  RH WIND       PRES   REMARKS
REEDSBURG      NOT AVBL
BARABOO/DELLS  SUNNY     48  47  95 CALM      30.06R FOG
LONE ROCK      FOG       49  48  97 W5        30.06R VSB 1
MINERAL POINT  NOT AVBL
MADISON        SUNNY     51  48  89 NW7       30.05R FOG
6HR MIN TEMP:  46; 6HR MAX TEMP:  54;

MIDDLETON      NOT AVBL
WATERTOWN      NOT AVBL
MONROE         NOT AVBL
JANESVILLE     SUNNY     54  50  87 NE7       30.00F
$$

WIZ051-052-058>065-066-070>072-021300-
SOUTHEAST WISCONSIN

CITY           SKY/WX    TMP DP  RH WIND       PRES   REMARKS
MILWAUKEE      MOSUNNY   54  49  83 NE9       30.02S
6HR MIN TEMP:  51; 6HR MAX TEMP:  54;

WAUKESHA       NOT AVBL
MILWAUKEE/TIMM SUNNY     52  46  82 NE7       30.03
RACINE         SUNNY     55  50  83 NE8       30.03R
6HR MIN TEMP:  50; 6HR MAX TEMP:  55;

BURLINGTON     NOT AVBL
KENOSHA        MOSUNNY   54  51  90 N3        30.02R
6HR MIN TEMP:  44; 6HR MAX TEMP:  54;

FOND DU LAC    SUNNY     54  48  80 CALM      30.05S
6HR MIN TEMP:  46; 6HR MAX TEMP:  54;

SHEBOYGAN      SUNNY     52  47  83 NE6       30.04F
6HR MIN TEMP:  46; 6HR MAX TEMP:  52;

WEST BEND      NOT AVBL
JUNEAU         NOT AVBL
$$

LSZ147-162-021300-
LAKE SUPERIOR

STATION/POSITION TIME  TEMP    WIND        PRES    WAVE
                       AIR SEA DIR/SP/G            HT/PER
                 (UTC) (F)     (DEG/KT/KT) (MB)    (FT/S)
W MID LAKE BUOY  1050   47 38  190/  6/  6 1016.8R   0
DEVILS ISLAND    1100   58     220/  6/  6 1016.7R
SAXON HARBOR     1100   54     200/  6/  7 1016.6
$$

LMZ867-665-643>646-021300-
LAKE MICHIGAN

STATION/POSITION TIME  TEMP    WIND        PRES    WAVE
                       AIR SEA DIR/SP/G            HT/PER
                 (UTC) (F)     (DEG/KT/KT) (MB)    (FT/S)
CHAMBERS ISLAND  1100   51      CALM  /  1 1018.3R
S GREEN BAY BUOY 1130   60 68   80/  6/  8 1019.4R
N MID LAKE BUOY  1050   50 41   CALM  /  2 1017.7F   0
NORTHPORT PIER   1100   51     200/  3/  3 1017.9R
SISTER BAY       1144   55        CALM       N/A
ALGOMA LAKESHORE 1010          320/  4/  6   N/A
KEWAUNEE LAKESHO 1100   47     300/  1/  3 1017.2R
SHEBOYGAN LAKESH 1100   56      20/ 11/ 11 1017.8R
PORT WASHINGTON  1140   54     360/  5/  8 1017.6S
ATWATER BUOY     1100   55      20/ 14/ 17 1017.6F
MILWAUKEE LAKESH 1100   55      20/ 13/ 15   N/A
KENOSHA   LAKESH 1100   56      30/ 15/ 18 1015.6F
$$

TC  - TEMPERATURE IN CELSIUS
VSB - VISIBILITY IN STATUTE MILES
WCI - WIND CHILL INDEX
HX  - HEAT INDEX




USA.gov is the U.S. government's official web portal to all federal, state and local government web resources and services.